Wind_Speed
24 25 27 27 28 30 31 32 33 33 32 31 30 31 32 32 32 32 32 32 32 32 32 31 31 30 30 31 31 31 32 31 31 31 31 31 31 31 30 29 29 29 30 30
24 24 26 27 28 30 30 31 32 32 32 31 30 30 31 31 32 33 33 33 33 32 32 31 31 30 30 30 30 31 31 31 31 31 30 30 30 30 29 29 29 29 29 30
23 24 25 26 26 28 29 29 30 30 30 30 30 30 31 31 32 33 33 34 33 32 32 31 31 30 30 30 30 30 30 30 30 30 29 29 28 28 27 28 28 27 27 28
24 24 25 25 25 26 28 28 29 29 29 29 29 30 31 31 32 33 34 33 33 32 31 31 31 31 30 30 30 30 29 29 28 28 28 27 27 27 27 26 27 27 27 27
22 24 24 23 24 25 27 28 29 29 29 29 29 30 31 31 31 32 33 33 33 33 32 31 30 30 30 30 30 29 29 28 27 27 26 26 26 26 26 26 26 26 26 26
22 23 22 21 23 24 25 27 28 28 29 29 29 29 29 30 30 30 31 32 32 32 32 31 31 30 29 29 29 28 28 28 27 26 25 25 25 25 25 25 25 25 25 25
21 22 22 21 23 23 24 25 26 27 28 29 29 29 28 29 29 29 30 31 32 32 32 32 31 30 30 29 28 28 28 28 27 26 26 25 25 25 25 25 25 26 25 25
21 22 21 21 22 24 23 24 25 25 26 27 28 29 29 29 28 28 29 30 31 31 32 32 32 31 30 29 28 28 28 27 26 26 26 25 25 25 25 25 25 25 25 24
20 20 20 21 22 23 23 24 25 25 25 25 26 27 28 29 29 28 28 29 29 30 31 31 31 31 30 29 29 29 28 27 26 26 25 25 24 25 25 25 24 24 23 23
21 21 21 21 22 22 23 24 24 25 26 26 25 26 27 27 28 29 29 29 29 29 29 30 30 30 30 30 29 29 28 27 26 25 25 24 24 24 25 24 23 23 22 22
21 22 22 22 22 22 22 23 24 25 26 26 26 26 26 27 27 28 28 28 28 29 29 28 28 29 30 30 30 29 28 27 26 25 25 24 24 24 24 24 23 22 22 21
21 21 22 22 22 22 23 23 23 24 25 25 26 26 26 26 28 28 28 28 28 27 28 27 27 27 28 28 28 28 28 27 26 25 25 24 24 23 23 22 22 22 22 22
22 22 23 23 23 23 23 23 23 23 23 24 24 25 26 26 27 28 28 28 28 27 27 27 26 26 26 26 26 27 27 27 27 27 25 24 24 23 22 22 21 21 21 21
23 23 23 24 23 23 23 23 23 22 22 23 23 23 24 25 25 26 27 27 27 27 27 27 26 26 25 25 25 26 26 26 27 27 27 26 25 24 22 22 21 20 20 21
22 23 23 24 24 23 22 22 22 22 22 22 22 22 23 23 24 25 26 27 27 27 27 27 26 26 25 25 25 25 25 25 25 26 26 26 26 25 23 22 21 21 21 21
23 23 23 24 24 24 23 23 23 22 23 23 22 22 22 23 23 24 25 26 26 26 26 26 26 25 25 24 23 23 24 24 24 25 25 25 24 24 24 22 22 22 22 22
23 24 25 25 25 25 25 24 24 23 23 23 23 23 23 23 23 23 24 26 26 26 25 25 25 25 25 24 23 23 23 24 24 24 24 24 24 24 23 23 23 23 23 23
24 25 25 25 25 25 25 24 24 23 23 23 23 23 23 23 23 23 24 25 25 25 24 25 25 25 24 24 24 23 23 23 23 24 23 23 23 23 23 23 23 24 23 22
23 23 24 25 26 26 26 25 24 24 23 22 22 22 22 22 23 24 24 25 25 24 24 24 24 24 24 24 23 22 22 23 23 23 22 22 23 23 23 23 23 23 22 22
21 22 22 24 25 25 25 26 25 24 24 23 22 22 22 22 22 24 24 25 25 25 24 25 25 24 24 24 23 22 22 22 22 22 22 22 22 22 22 22 22 22 22 21
20 21 21 22 24 24 24 24 24 24 24 24 23 23 23 22 22 23 24 24 25 25 25 24 25 24 24 24 24 24 23 23 22 22 22 22 22 22 21 21 21 21 22 21
19 20 21 21 22 23 23 23 23 23 23 23 23 23 23 24 23 23 23 24 25 26 25 25 24 24 23 23 23 23 23 23 23 23 23 22 22 22 22 21 22 22 22 22
19 19 20 21 21 22 23 23 23 22 22 22 23 23 23 24 24 24 23 24 25 26 26 25 25 25 24 23 23 23 23 23 23 23 23 23 22 22 22 22 21 21 21 21
18 18 19 20 21 22 22 23 23 22 21 21 21 22 22 23 23 24 24 24 24 25 25 26 25 25 25 24 24 23 23 23 24 24 23 23 23 22 22 22 22 21 21 22
18 18 18 19 20 21 21 22 23 22 22 21 21 21 21 22 22 23 23 24 25 24 24 24 25 25 25 24 24 23 23 23 24 24 24 24 24 23 23 23 22 22 22 22
18 18 18 18 19 20 20 21 22 22 22 22 22 22 22 22 22 23 23 24 26 25 25 25 25 24 24 24 24 23 23 23 23 24 23 23 23 23 23 23 22 22 22 22
19 18 18 17 18 18 19 19 20 20 21 22 22 22 22 22 22 23 23 24 26 26 26 26 26 25 24 24 23 22 22 22 22 22 22 22 22 22 22 22 22 22 21 21
Wind_Direction
237 235 232 231 230 228 228 231 233 233 233 232 234 234 234 234 235 235 234 235 237 240 243 245 247 249 251 253 255 257 258 261 263 265 268 270 272 273 273 274 275 277 278 279
235 233 233 231 230 229 228 229 232 233 233 234 235 234 234 235 237 237 236 237 239 241 244 245 247 249 252 254 256 257 259 261 263 265 267 269 271 271 272 273 275 279 279 279
235 231 230 228 228 230 231 231 232 233 233 235 236 236 236 237 237 237 237 238 239 241 243 244 246 249 252 254 255 258 259 261 262 264 267 269 271 270 270 273 275 277 280 281
236 233 232 228 229 231 231 232 232 232 232 233 236 237 237 238 239 239 239 239 240 240 242 243 246 249 252 253 255 256 258 260 262 263 265 267 269 269 271 274 275 277 280 282
234 235 234 231 231 232 233 232 233 234 233 235 238 239 240 239 239 240 240 241 241 242 241 242 245 248 251 253 254 255 256 258 260 262 264 266 268 268 271 273 275 279 281 283
234 236 237 234 233 233 233 233 234 236 236 236 238 240 240 241 242 242 241 241 241 241 242 244 246 247 249 251 252 254 255 257 259 261 263 265 266 267 270 274 276 279 281 281
238 239 238 237 235 235 237 235 234 236 237 238 240 242 241 241 242 243 243 242 242 243 244 246 247 248 249 250 250 252 254 256 258 259 262 265 265 266 269 273 276 279 281 281
240 240 239 239 238 238 239 237 237 237 238 240 242 243 243 242 242 244 244 244 244 244 246 247 248 249 249 249 248 249 252 255 256 257 260 263 266 266 267 271 276 279 280 280
242 241 240 240 240 240 240 239 238 238 239 240 241 242 243 243 244 244 244 244 245 246 246 246 248 248 249 248 248 249 249 252 254 256 259 261 264 267 269 272 275 278 279 279
242 240 239 238 240 241 241 241 240 240 241 242 242 243 242 244 245 245 245 245 245 246 246 247 248 248 248 248 248 248 247 248 251 254 257 260 264 268 270 272 274 276 276 277
243 241 240 239 238 239 240 242 244 246 247 247 245 245 244 243 243 243 244 244 244 245 246 247 248 248 248 248 248 247 246 246 248 250 254 259 263 267 269 270 271 274 274 274
241 239 239 239 237 239 241 242 245 247 248 248 248 246 245 245 242 242 244 245 244 244 245 246 246 246 246 246 246 246 246 246 247 250 253 257 261 265 267 270 272 272 272 274
241 239 240 239 240 241 243 244 246 247 248 249 249 249 247 246 243 241 241 242 242 243 244 244 245 246 246 245 244 244 246 247 250 251 253 257 260 263 266 269 273 274 273 274
243 241 240 239 241 242 243 245 246 247 249 249 249 248 247 246 244 241 240 240 240 241 242 243 243 245 246 246 244 245 245 248 251 252 253 256 258 261 265 268 270 273 274 274
244 242 241 240 241 242 243 244 245 248 249 247 246 246 244 244 243 240 239 238 239 241 242 242 243 244 246 247 246 246 245 247 249 250 252 254 256 259 262 266 269 271 275 276
243 242 242 242 243 244 245 245 246 248 248 247 246 246 245 244 243 241 238 237 238 241 242 241 241 242 243 244 244 246 246 247 249 250 251 253 255 257 260 265 268 271 275 277
244 242 242 242 243 243 243 244 246 247 248 248 248 247 246 245 244 242 238 237 237 239 239 240 240 241 240 240 243 245 247 249 250 250 251 252 255 257 261 265 269 272 276 277
245 243 241 241 242 241 242 244 247 248 248 248 249 248 246 246 244 241 239 237 238 239 239 239 239 240 240 241 243 245 247 249 250 249 250 252 255 258 261 265 270 273 276 276
249 248 246 245 244 244 244 245 246 246 247 247 247 247 246 245 244 242 240 238 237 237 238 238 238 238 240 243 244 245 246 248 249 249 249 252 255 259 263 266 269 270 271 272
249 249 248 246 245 245 246 246 246 245 245 246 247 248 247 246 244 242 241 239 236 235 235 236 236 237 240 243 244 245 246 248 249 249 250 253 255 258 262 265 267 268 270 271
251 251 251 249 246 245 246 245 244 243 244 245 245 246 246 245 244 242 241 240 238 236 235 234 235 238 241 244 245 246 247 249 250 250 250 253 257 260 262 263 265 268 269 270
253 253 251 248 245 244 243 244 243 243 244 245 245 246 245 244 244 243 242 240 237 236 234 234 236 239 241 243 245 246 247 250 251 252 252 255 259 262 263 263 265 267 268 270
253 252 249 246 244 243 243 243 242 243 245 246 246 246 245 243 242 241 241 239 236 234 233 234 237 239 242 244 246 247 248 250 252 252 253 254 258 261 263 264 267 268 268 271
253 252 250 247 244 241 241 242 242 243 245 246 245 243 241 241 240 240 238 237 235 233 234 236 238 241 244 246 248 248 250 253 253 254 255 256 258 260 263 264 267 268 270 272
253 252 250 248 245 242 240 240 242 244 246 246 244 241 240 240 240 240 237 236 235 234 235 236 238 241 243 246 247 249 252 253 253 253 255 257 259 261 262 264 267 268 269 272
252 250 248 246 244 242 241 240 241 243 244 244 242 241 241 241 240 240 238 236 235 234 234 236 238 240 243 246 248 250 252 253 253 254 255 256 258 260 261 263 266 267 269 272
249 247 247 246 244 243 243 242 242 242 241 241 240 240 241 242 241 240 239 237 235 234 235 236 238 241 244 246 248 250 251 252 251 250 252 255 258 260 261 263 266 268 271 273
Height
5564 5566 5569 5573 5576 5578 5582 5586 5590 5595 5599 5603 5606 5610 5613 5616 5620 5624 5627 5630 5633 5636 5638 5641 5643 5644 5646 5647 5648 5649 5649 5650 5650 5649 5649 5648 5647 5646 5644 5643 5641 5640 5638 5637
5558 5560 5563 5566 5569 5572 5575 5579 5583 5587 5592 5596 5599 5602 5605 5609 5612 5615 5619 5622 5625 5628 5630 5632 5634 5636 5637 5638 5639 5640 5640 5641 5641 5641 5640 5640 5639 5637 5636 5635 5634 5632 5630 5629
5553 5555 5557 5561 5564 5567 5570 5574 5577 5580 5586 5589 5592 5594 5597 5601 5604 5607 5610 5613 5616 5619 5622 5624 5626 5627 5628 5629 5630 5631 5632 5632 5632 5632 5632 5632 5631 5630 5629 5628 5626 5625 5623 5621
5547 5550 5553 5558 5559 5561 5564 5568 5571 5574 5578 5581 5584 5587 5589 5593 5596 5599 5602 5605 5608 5610 5613 5615 5617 5619 5620 5621 5622 5623 5624 5624 5624 5625 5625 5624 5623 5623 5622 5621 5619 5618 5616 5614
5542 5544 5547 5551 5553 5555 5558 5561 5564 5567 5570 5574 5576 5579 5582 5585 5588 5591 5594 5597 5599 5602 5604 5606 5608 5610 5612 5613 5613 5614 5615 5616 5616 5617 5617 5617 5617 5616 5615 5614 5612 5611 5609 5607
5536 5538 5541 5546 5547 5548 5552 5555 5558 5560 5563 5566 5569 5572 5576 5578 5580 5583 5585 5588 5591 5593 5595 5598 5600 5601 5603 5604 5605 5606 5607 5608 5609 5609 5610 5610 5609 5609 5608 5607 5606 5604 5603 5601
5531 5532 5535 5539 5541 5543 5547 5550 5552 5554 5556 5559 5562 5566 5569 5570 5572 5575 5577 5579 5582 5584 5587 5589 5591 5593 5595 5596 5597 5598 5599 5600 5601 5602 5602 5602 5602 5602 5601 5600 5599 5598 5597 5595
5525 5528 5533 5533 5535 5538 5540 5542 5544 5547 5549 5552 5555 5557 5560 5562 5564 5567 5569 5571 5573 5576 5578 5580 5582 5584 5586 5588 5589 5590 5591 5592 5593 5594 5594 5595 5595 5594 5594 5593 5593 5591 5590 5588
5521 5525 5525 5526 5528 5530 5533 5535 5537 5540 5543 5545 5547 5550 5552 5554 5557 5559 5561 5563 5565 5567 5569 5571 5574 5576 5578 5579 5581 5582 5583 5585 5586 5587 5587 5587 5587 5587 5587 5586 5586 5585 5584 5582
5515 5517 5518 5520 5522 5524 5526 5528 5531 5533 5535 5537 5540 5542 5544 5547 5549 5551 5553 5555 5557 5559 5561 5563 5565 5567 5569 5571 5572 5574 5575 5577 5578 5579 5580 5580 5580 5580 5580 5580 5579 5578 5577 5576
5509 5511 5513 5515 5516 5518 5520 5522 5524 5526 5528 5530 5532 5534 5536 5538 5540 5542 5544 5547 5549 5551 5553 5555 5557 5559 5560 5562 5564 5565 5567 5569 5570 5572 5573 5574 5574 5574 5574 5573 5573 5572 5571 5570
5504 5505 5506 5508 5510 5512 5514 5516 5517 5519 5521 5522 5524 5526 5528 5530 5532 5534 5536 5539 5541 5543 5545 5547 5549 5550 5552 5554 5555 5558 5560 5561 5563 5564 5566 5567 5567 5567 5567 5566 5566 5565 5564 5563
5497 5498 5500 5502 5504 5505 5507 5509 5510 5512 5513 5515 5516 5518 5520 5521 5523 5526 5528 5530 5533 5535 5537 5539 5541 5542 5544 5546 5548 5550 5552 5554 5556 5557 5559 5559 5560 5560 5560 5560 5559 5558 5558 5557
5490 5492 5494 5496 5497 5499 5500 5502 5503 5505 5506 5507 5508 5510 5512 5513 5515 5517 5520 5522 5525 5527 5529 5531 5533 5535 5537 5538 5540 5542 5545 5546 5548 5550 5551 5552 5553 5554 5554 5553 5553 5552 5552 5551
5484 5486 5488 5489 5491 5493 5494 5495 5497 5498 5499 5500 5501 5503 5504 5506 5507 5509 5511 5514 5516 5519 5521 5523 5525 5528 5529 5531 5533 5535 5537 5539 5540 5542 5543 5545 5546 5547 5547 5547 5547 5546 5545 5544
5477 5479 5481 5482 5484 5486 5487 5489 5490 5491 5492 5493 5495 5496 5497 5499 5500 5501 5504 5506 5508 5511 5513 5516 5518 5520 5522 5524 5526 5528 5530 5532 5533 5534 5536 5537 5538 5539 5540 5540 5540 5540 5539 5538
5470 5472 5474 5476 5477 5479 5480 5482 5483 5484 5485 5486 5488 5489 5490 5492 5493 5495 5497 5499 5501 5503 5505 5508 5510 5513 5515 5517 5519 5521 5523 5525 5526 5527 5529 5530 5531 5532 5533 5533 5533 5532 5532 5531
5463 5465 5466 5468 5470 5472 5473 5474 5476 5477 5478 5479 5480 5482 5483 5485 5486 5488 5489 5491 5494 5496 5498 5501 5503 5506 5508 5511 5513 5515 5516 5518 5519 5520 5522 5523 5524 5525 5525 5526 5526 5525 5524 5523
5455 5457 5458 5460 5462 5463 5465 5467 5468 5470 5471 5472 5473 5475 5476 5477 5479 5481 5482 5485 5487 5490 5492 5494 5497 5499 5502 5504 5506 5508 5510 5511 5512 5514 5515 5516 5517 5518 5518 5519 5518 5518 5517 5517
5448 5449 5450 5452 5454 5455 5457 5459 5460 5462 5463 5465 5466 5468 5469 5470 5472 5474 5475 5478 5480 5482 5485 5487 5490 5493 5495 5498 5500 5502 5503 5505 5506 5507 5509 5510 5511 5511 5512 5512 5512 5511 5511 5510
5441 5442 5443 5444 5446 5448 5449 5451 5452 5454 5456 5457 5459 5460 5462 5463 5465 5466 5468 5471 5473 5476 5478 5481 5484 5487 5489 5491 5493 5495 5497 5498 5500 5501 5502 5503 5504 5504 5505 5505 5505 5505 5504 5504
5434 5435 5436 5437 5439 5440 5442 5443 5445 5447 5449 5450 5452 5453 5455 5456 5458 5460 5461 5464 5466 5469 5471 5474 5477 5480 5482 5484 5486 5488 5490 5491 5493 5494 5495 5496 5497 5498 5498 5498 5498 5498 5498 5498
5427 5428 5429 5430 5431 5433 5435 5437 5438 5440 5442 5443 5444 5446 5448 5449 5451 5453 5455 5457 5459 5462 5465 5468 5470 5473 5475 5477 5479 5481 5483 5484 5486 5487 5488 5489 5490 5491 5491 5491 5491 5491 5491 5491
5420 5421 5422 5423 5424 5426 5428 5430 5431 5433 5434 5436 5437 5439 5440 5442 5444 5446 5448 5450 5452 5455 5458 5461 5463 5466 5468 5471 5472 5474 5476 5477 5478 5480 5481 5482 5483 5484 5484 5484 5484 5484 5484 5484
5414 5414 5415 5416 5418 5419 5421 5422 5424 5426 5427 5429 5430 5432 5433 5435 5437 5439 5441 5443 5446 5449 5451 5454 5456 5459 5461 5463 5465 5467 5468 5470 5471 5472 5473 5474 5475 5476 5476 5477 5477 5477 5477 5476
5407 5408 5409 5410 5411 5412 5414 5415 5417 5418 5420 5421 5423 5425 5427 5428 5430 5432 5434 5437 5439 5442 5445 5447 5449 5452 5454 5456 5458 5460 5461 5462 5463 5464 5465 5466 5467 5468 5469 5469 5469 5469 5469 5469
5400 5401 5402 5404 5405 5406 5407 5408 5410 5411 5413 5414 5416 5418 5420 5421 5423 5425 5427 5429 5432 5435 5438 5440 5443 5445 5448 5450 5451 5453 5454 5455 5456 5457 5458 5459 5460 5461 5461 5462 5462 5462 5462 5462